This is the latest recevied weather packets stored in our database for station/object PY2VE-13. If no packets are shown the sender has not sent any weather packets the latest 10 day(s).
| Time | Temp. | Humidity | Pressure | Rain* | Wind** | Luminosity | Snow |
|---|---|---|---|---|---|---|---|
| 1777367014 | 25° C | 61% | 1019.8 hPa | - | - | - | - |
| 1777366114 | 25° C | 62% | 1019.6 hPa | - | - | - | - |
| 1777365214 | 25° C | 62% | 1019.4 hPa | - | - | - | - |
| 1777364314 | 25° C | 64% | 1019.5 hPa | - | - | - | - |
| 1777363414 | 24.44° C | 65% | 1019.6 hPa | - | - | - | - |
| 1777362513 | 24.44° C | 65% | 1019.5 hPa | - | - | - | - |
| 1777361613 | 24.44° C | 64% | 1019.3 hPa | - | - | - | - |
| 1777360713 | 25.56° C | 62% | 1019.1 hPa | - | - | - | - |
| 1777359813 | 25.56° C | 61% | 1019 hPa | - | - | - | - |
| 1777358913 | 25° C | 63% | 1019.3 hPa | - | - | - | - |
| 1777358013 | 26.11° C | 58% | 1018.7 hPa | - | - | - | - |
| 1777357113 | 26.11° C | 58% | 1018.4 hPa | - | - | - | - |
| 1777356213 | 26.67° C | 58% | 1018.5 hPa | - | - | - | - |
| 1777355313 | 25.56° C | 61% | 1019 hPa | - | - | - | - |
| 1777354413 | 26.11° C | 60% | 1018.9 hPa | - | - | - | - |
| 1777353513 | 26.67° C | 57% | 1018.9 hPa | - | - | - | - |
| 1777352613 | 26.67° C | 58% | 1018.9 hPa | - | - | - | - |
| 1777351713 | 26.11° C | 60% | 1019.4 hPa | - | - | - | - |
| 1777350814 | 26.11° C | 61% | 1019.6 hPa | - | - | - | - |
| 1777349913 | 26.67° C | 58% | 1019.7 hPa | - | - | - | - |
| 1777349013 | 27.22° C | 57% | 1019.5 hPa | - | - | - | - |
| 1777348113 | 26.67° C | 59% | 1019.6 hPa | - | - | - | - |
| 1777347213 | 26.11° C | 60% | 1019.7 hPa | - | - | - | - |
| 1777346313 | 26.11° C | 61% | 1019.5 hPa | - | - | - | - |
| 1777345413 | 26.11° C | 60% | 1019.8 hPa | - | - | - | - |
* Rain since midnight (hover to see other rain measurements)
** Current wind speed in m/s (hover to see current wind gust speed)